Regional Weather Roundup
Issued by NWS

Home | Current Version | Previous Version | Graphics & Text | Print | Product List | Glossary Off
Versions: 1 2 3 4 5 6 7 8 9 10 11 12 13 14 15 16 17 18 19 20 21 22 23 24 25 26 27 28 29 30 31 32 33 34 35 36 37 38 39 40 41 42 43 44 45 46 47 48 49 50

293
ASUS43 KTOP 100608
RWRKS

WEATHER ROUNDUP FOR KANSAS
NATIONAL WEATHER SERVICE GOODLAND KS
1200 AM CST SAT DEC 10 2016

NOTE:  "FAIR" INDICATES FEW OR NO CLOUDS BELOW 12,000 FEET WITH NO
SIGNIFICANT WEATHER AND/OR OBSTRUCTIONS TO VISIBILITY.

KSZ001>006-013>018-027>032-041>047-100700-
NORTHWEST KANSAS

CITY           SKY/WX    TMP DP  RH WIND       PRES   REMARKS
GOODLAND       CLOUDY    23  19  85 S13       30.18S WCI  11
6HR MIN TEMP:  20; 6HR MAX TEMP:  28;

HAYS           CLOUDY    16  11  80 SE7       30.37S
HILL CITY      CLOUDY    20  12  71 SE6       30.34S
6HR MIN TEMP:  18; 6HR MAX TEMP:  26;

RUSSELL        CLOUDY    20  13  74 S10       30.37R WCI   9
6HR MIN TEMP:  18; 6HR MAX TEMP:  22;

$$

KSZ061>065-074>080-084>089-100700-
SOUTHWEST KANSAS

CITY           SKY/WX    TMP DP  RH WIND       PRES   REMARKS
DODGE CITY     CLOUDY    20  14  77 S15       30.31F WCI   6
6HR MIN TEMP:  20; 6HR MAX TEMP:  28;

ELKHART          N/A     23  15  71 SE13        N/A  WCI  11
GARDEN CITY    CLOUDY    20  14  77 SE14      30.26F WCI   7
6HR MIN TEMP:  20; 6HR MAX TEMP:  29;

GREAT BEND     CLOUDY    17  12  80 SE7       30.38S
LIBERAL        CLOUDY    25  16  68 E7        30.27S
PRATT          CLOUDY    19  10  67 S6        30.39R
6HR MIN TEMP:  18; 6HR MAX TEMP:  22;

$$

KSZ066>073-081>083-090>101-100700-
SOUTHEAST KANSAS

CITY           SKY/WX    TMP DP  RH WIND       PRES   REMARKS
CHANUTE        CLOUDY    29  16  58 SE3       30.49S
6HR MIN TEMP:  29; 6HR MAX TEMP:  29;

COFFEYVILLE    CLOUDY    31  19  61 CALM      30.50F
6HR MIN TEMP:  30; 6HR MAX TEMP:  31;

HUTCHINSON     CLOUDY    27  13  55 SE5       30.43R
6HR MIN TEMP:  25; 6HR MAX TEMP:  42;

MEDICINE LODGE   N/A     20  13  74 CALM      30.43R
NEWTON         CLOUDY    20  14  77 SE6       30.44R
PARSONS        CLOUDY    31  15  52 CALM      30.50F
6HR MIN TEMP:  30; 6HR MAX TEMP:  31;

WICHITA INTL   CLOUDY    22  13  68 SE5       30.44S
6HR MIN TEMP:  22; 6HR MAX TEMP:  28;

WICHITA JABRA  CLOUDY    21  14  74 SE5       30.44S
6HR MIN TEMP:  21; 6HR MAX TEMP:  27;

WICHITA MCCONL CLOUDY    23  13  66 S6        30.44S
WINFIELD       CLOUDY    25  14  63 SE5       30.46F
6HR MIN TEMP:  24; 6HR MAX TEMP:  29;

$$

KSZ007>012-019>026-033>040-048>060-102>105-100700-
NORTHEAST KANSAS

CITY           SKY/WX    TMP DP  RH WIND       PRES   REMARKS
CONCORDIA      CLOUDY    18  13  80 S3        30.44R
6HR MIN TEMP:  18; 6HR MAX TEMP:  25;

EMPORIA        CLOUDY    22  14  71 SE3       30.47F
6HR MIN TEMP:  21; 6HR MAX TEMP:  27;

LAWRENCE       CLOUDY    27  19  72 E5        30.51S
6HR MIN TEMP:  26; 6HR MAX TEMP:  27;

MANHATTAN      CLOUDY    29  15  56 SE5       30.46F
6HR MIN TEMP:  28; 6HR MAX TEMP:  29;

MARYSVILLE     CLOUDY    27  16  63 CALM      30.45S
OLATHE IND     CLOUDY    26  15  63 SE6       30.49F
6HR MIN TEMP:  26; 6HR MAX TEMP:  26;

OLATHE EXE     CLOUDY    25  13  60 SE5       30.49F
6HR MIN TEMP:  25; 6HR MAX TEMP:  25;

SALINA         CLOUDY    25  15  66 S6        30.45R
6HR MIN TEMP:  25; 6HR MAX TEMP:  29;

TOPEKA BILLARD CLOUDY    28  16  60 S7        30.49F
6HR MIN TEMP:  27; 6HR MAX TEMP:  28;

TOPEKA FORBES  CLOUDY    25  15  66 SE5       30.48F
6HR MIN TEMP:  25; 6HR MAX TEMP:  28;

$$




USA.gov is the U.S. government's official web portal to all federal, state and local government web resources and services.